GEFSNE_500_meanwind_090.txt.gz
Wind_Speed
39 40 41 42 42 42 42 42 41 42 41 41 42 41 41 41 41 41 41 41 40 39 38 37 35 33 32 30 28 26 25 23 22 21 20 19 19 19
40 40 41 43 44 44 44 43 43 43 43 42 43 43 42 42 43 43 42 42 41 40 39 38 36 35 33 31 30 28 26 25 24 22 20 19 18 18
41 42 43 44 44 44 45 46 46 45 45 45 45 44 45 45 45 44 43 43 43 41 40 39 38 36 34 33 32 30 28 26 25 23 21 19 18 17
42 43 44 45 46 46 46 47 48 48 47 46 47 46 46 46 46 46 45 44 43 43 42 41 40 38 36 35 33 31 29 27 26 24 22 20 19 18
42 43 44 45 47 48 48 48 49 50 50 48 48 48 48 48 47 47 47 46 46 45 44 43 41 40 38 37 35 33 31 30 28 25 24 22 20 19
40 41 43 45 46 48 50 50 50 51 51 50 50 49 49 49 49 49 49 48 47 47 46 45 44 43 41 39 37 35 33 32 29 27 25 24 22 20
38 40 42 44 45 47 49 51 52 52 52 53 52 52 52 51 51 51 50 49 49 49 48 46 45 44 43 41 39 37 35 34 31 29 27 25 24 22
37 39 41 43 44 46 48 50 53 54 54 54 53 54 54 53 52 52 51 51 50 49 49 49 48 46 45 44 42 40 37 36 33 31 29 27 25 24
35 37 39 41 43 45 48 50 52 54 56 56 55 56 57 56 55 53 52 51 50 50 51 51 50 49 47 46 45 42 40 38 36 34 31 29 27 25
32 34 36 39 42 45 47 50 52 54 56 57 56 57 58 58 57 55 54 53 52 52 52 52 51 50 49 48 46 44 42 41 38 36 33 31 29 27
30 30 33 36 39 43 46 48 50 53 56 58 57 58 59 60 59 57 56 54 53 54 53 52 52 52 51 50 48 46 44 42 40 38 36 34 32 30
29 30 31 34 37 40 43 46 49 51 54 57 58 58 59 60 61 60 58 56 54 54 54 53 52 53 52 52 51 49 46 44 42 40 38 35 33 31
27 28 30 31 34 37 40 43 47 49 51 55 57 59 60 60 61 61 60 58 56 54 54 54 53 54 54 52 51 50 48 46 44 41 39 37 35 33
25 26 27 28 29 33 36 40 43 46 48 52 54 57 58 59 60 62 61 58 57 55 54 54 53 53 53 52 50 50 49 47 45 42 40 38 36 34
23 23 23 24 26 28 32 36 40 42 44 47 51 53 56 57 58 60 61 59 57 55 52 52 53 53 54 53 51 49 48 48 46 43 41 39 37 35
20 19 19 20 21 24 28 32 36 39 41 44 47 50 52 55 57 58 58 58 57 56 54 52 52 53 54 53 51 49 48 48 46 44 42 40 38 36
17 16 15 16 18 21 24 27 31 36 38 41 44 46 48 51 53 55 56 57 56 56 55 53 52 52 53 52 51 50 49 48 47 46 43 41 39 37
14 13 12 13 15 18 21 24 27 31 35 37 41 44 45 46 48 51 53 54 54 55 56 54 52 52 51 50 50 50 50 49 48 46 44 42 40 39
12 11 10 10 11 14 17 21 24 28 31 33 36 40 42 43 44 46 49 51 52 53 54 55 54 53 52 51 51 50 50 49 48 46 44 43 41 40
11 9 8 8 9 11 14 18 22 25 27 30 34 36 39 41 42 43 45 47 50 51 51 53 53 53 51 50 49 49 50 49 47 46 44 43 42 40
11 8 6 5 7 9 12 16 20 23 25 27 30 34 36 38 40 41 43 45 47 49 50 50 51 52 51 51 50 49 48 47 47 46 45 44 43 41
10 7 5 4 5 8 11 14 17 20 23 25 28 31 34 35 37 39 40 42 44 46 47 49 49 50 50 50 50 49 48 47 47 46 46 45 43 41
9 7 5 4 4 6 9 12 16 18 21 23 25 29 31 33 34 36 38 40 42 44 46 46 46 47 47 48 49 48 48 47 46 45 44 44 43 42

GEFSNE_500_meanwind_096.txt.gz
Wind_Speed
37 38 39 40 41 42 42 42 43 44 44 44 44 44 44 45 45 45 46 45 46 46 46 45 43 42 41 39 37 35 33 32 31 30 29 27 26 25
36 37 38 39 40 41 42 43 44 44 45 45 45 45 45 46 46 46 46 45 46 46 46 46 45 43 42 41 39 37 35 33 32 31 29 27 26 25
35 36 37 38 40 41 42 42 43 44 45 46 47 47 46 46 47 46 46 46 46 47 47 47 46 45 44 42 40 38 36 34 33 31 29 27 26 24
35 36 37 38 40 41 42 43 44 44 45 45 47 48 48 46 46 48 47 47 47 47 48 48 47 46 45 43 42 40 38 36 34 32 31 28 27 25
36 37 38 39 40 42 43 44 45 46 46 46 46 47 49 48 48 48 48 48 47 47 47 48 47 47 46 45 43 42 40 37 35 33 32 30 28 26
35 36 37 39 40 42 43 44 46 47 47 47 47 48 50 50 50 50 49 48 48 48 48 48 47 47 47 47 45 44 42 39 37 35 34 32 30 28
34 35 37 38 39 40 42 43 45 46 47 47 48 48 50 51 51 51 51 50 49 49 50 50 49 48 48 48 46 45 43 41 39 37 35 34 32 29
34 35 36 36 37 38 39 41 43 45 46 47 48 49 50 51 52 52 52 51 50 49 50 51 51 50 49 49 48 46 44 42 41 39 37 35 33 31
32 33 33 34 35 36 38 40 41 43 45 47 48 48 50 52 52 54 54 52 51 49 49 51 51 51 51 49 49 47 45 44 43 42 40 37 35 32
30 31 32 33 34 35 37 38 40 42 44 45 47 48 50 52 53 54 55 53 51 49 49 50 52 52 52 51 49 48 47 46 45 44 41 39 36 34
29 30 30 32 34 35 35 37 38 41 43 45 46 48 50 53 54 54 54 55 52 51 50 49 51 52 52 52 51 49 48 47 47 45 43 41 39 36
29 30 30 31 32 33 34 36 37 39 41 43 45 47 49 52 54 55 54 55 55 53 52 49 49 51 52 52 52 51 49 48 47 46 44 43 41 39
29 28 29 29 29 30 31 33 36 38 40 41 44 46 48 50 53 55 56 55 55 55 53 52 50 51 52 51 51 51 50 49 48 47 46 44 42 40
27 27 27 27 28 28 29 31 33 36 38 40 42 44 47 49 52 54 55 57 56 55 53 54 52 51 50 52 51 51 50 49 48 48 47 46 44 42
26 25 25 26 26 26 27 28 30 33 36 37 39 41 44 48 51 53 54 55 56 55 54 54 53 52 51 52 52 51 50 50 49 49 48 47 45 43
25 24 23 24 24 24 24 25 27 30 33 35 37 39 41 45 49 52 52 53 55 55 55 54 53 53 52 52 53 52 51 51 50 50 49 48 47 44
24 22 22 21 21 21 21 22 24 26 29 32 36 37 39 42 45 50 52 52 53 55 56 56 55 54 52 52 53 52 50 51 51 51 50 48 47 45
23 21 19 19 18 17 18 19 20 23 26 29 33 36 37 39 42 46 49 49 51 53 54 55 56 55 53 52 52 51 51 51 51 51 50 48 47 46
21 19 17 15 15 15 15 17 18 20 23 26 29 33 35 37 39 42 45 46 48 50 51 52 54 54 53 53 51 49 50 50 49 48 48 48 47 46
19 17 15 13 12 11 13 15 16 17 20 24 27 30 33 35 37 38 40 42 45 47 48 49 51 52 51 51 50 49 49 48 47 47 47 47 47 46
18 17 14 12 10 10 11 12 14 16 18 21 24 28 31 33 34 36 37 40 43 44 46 47 48 50 50 49 48 47 47 47 47 47 47 46 46 45
17 15 13 11 9 9 9 11 13 15 17 19 22 25 28 30 32 34 35 37 39 42 43 43 45 47 49 48 47 46 46 44 45 46 45 45 44 44
16 14 12 10 9 8 8 10 12 14 16 18 20 23 25 28 30 32 33 34 36 39 41 41 42 43 45 46 46 45 45 45 45 46 45 44 43 43

GEFSNE_500_meanwind_102.txt.gz
Wind_Speed
31 32 33 33 34 35 36 37 38 38 39 39 39 39 39 39 40 40 41 40 41 41 41 42 42 41 40 39 40 41 40 39 37 35 33 31 30 28
33 33 34 34 35 35 36 37 37 38 38 39 40 41 40 39 40 41 41 41 41 42 42 43 43 43 42 41 40 40 41 40 38 36 35 33 31 29
35 35 35 35 36 36 36 37 37 37 38 39 40 41 41 41 40 40 41 42 42 42 42 43 43 44 43 42 41 40 41 41 39 37 36 35 33 31
36 36 36 36 37 37 37 36 36 37 38 38 40 40 41 42 41 41 42 42 43 43 42 43 44 44 44 43 41 41 41 40 40 39 37 35 34 32
35 35 35 36 36 36 37 36 36 37 38 38 40 41 42 41 41 42 42 43 42 42 43 43 44 44 44 44 43 42 42 41 40 39 38 36 34 33
34 34 34 34 35 35 35 36 37 37 38 38 39 41 43 43 43 42 43 44 43 43 43 43 44 45 45 45 44 43 42 42 41 41 39 37 35 33
33 33 34 34 34 35 35 36 36 36 38 38 39 40 42 44 44 43 42 44 45 44 44 44 44 45 46 45 45 44 43 42 42 42 40 38 36 34
33 33 33 33 34 34 35 36 36 37 37 38 39 39 41 43 44 45 44 43 44 45 46 45 44 45 47 46 46 45 45 43 43 42 41 40 38 36
33 32 31 32 32 33 34 35 36 36 37 37 38 38 40 42 44 45 45 45 44 44 45 46 46 45 46 46 46 46 46 44 44 44 42 41 40 38
32 31 31 31 32 32 33 33 34 35 36 37 37 37 39 40 42 44 45 45 45 45 46 46 47 45 45 45 46 46 47 47 46 46 44 43 42 40
31 30 30 31 31 31 32 33 34 35 36 36 37 37 38 39 41 43 44 45 45 45 45 46 47 47 47 45 45 46 47 48 48 47 45 44 43 42
31 30 30 30 30 30 31 32 33 34 35 36 37 37 38 39 40 41 44 45 45 45 46 46 47 48 48 47 47 46 48 49 49 48 46 45 44 43
30 30 29 29 29 30 31 31 32 33 34 35 36 37 38 39 39 40 43 44 45 44 46 46 46 47 48 48 48 48 48 48 48 48 46 45 44 44
30 29 29 29 29 29 29 29 30 31 32 33 34 35 36 38 39 40 41 43 45 44 45 46 46 47 48 48 48 48 48 48 48 47 47 46 45 45
30 29 29 29 28 28 28 28 28 29 30 31 32 33 34 36 37 39 41 42 44 44 44 46 47 47 47 47 47 48 48 47 47 47 47 46 46 46
29 28 28 29 28 27 26 26 26 26 27 28 29 31 32 34 35 37 39 41 43 43 43 45 47 48 47 46 45 46 48 47 47 47 48 48 47 47
29 27 27 27 26 25 25 24 24 24 24 25 26 28 29 31 33 34 36 38 41 42 43 44 47 48 49 47 46 45 47 48 48 48 49 49 48 47
29 27 27 26 24 23 22 22 22 22 22 22 24 26 27 29 30 32 34 36 38 41 43 44 46 48 49 49 47 45 45 46 48 49 49 48 47 47
28 27 25 24 22 21 20 19 19 20 20 20 21 22 24 26 28 30 31 33 36 39 41 42 44 46 47 48 48 46 44 45 46 48 48 48 46 45
27 26 24 22 21 20 18 17 17 18 18 18 19 20 21 23 26 28 30 32 33 36 39 41 42 43 43 45 47 46 46 45 44 45 47 47 46 46
25 24 23 22 20 19 17 16 16 16 16 17 17 18 19 21 23 25 28 30 32 34 37 40 41 41 42 44 45 45 45 45 44 44 45 47 46 45
23 23 22 21 19 18 17 15 14 14 14 15 16 17 18 19 21 23 26 28 30 32 35 37 38 40 40 41 43 43 43 43 42 43 44 45 45 44
22 22 21 19 18 17 16 14 13 13 13 13 14 15 16 18 20 22 24 26 28 31 33 35 36 38 39 40 41 42 42 43 42 43 43 43 44 44

GEFSNE_500_meanwind_108.txt.gz
Wind_Speed
26 26 27 27 28 29 30 31 32 33 34 36 37 38 40 40 40 40 40 41 42 42 43 43 42 42 42 43 42 41 41 41 40 39 38 36 35 33
28 29 29 30 31 32 33 33 34 34 35 37 38 39 39 40 41 42 42 42 43 44 44 45 44 44 44 44 44 43 42 42 42 41 40 38 37 35
31 31 32 33 33 34 34 35 35 36 36 37 39 40 40 41 42 43 44 44 45 45 45 46 45 45 45 45 45 44 43 43 42 41 41 40 39 38
34 34 34 35 34 35 35 35 35 36 36 37 39 40 41 41 42 43 44 45 45 46 47 47 47 46 47 46 46 45 45 44 43 42 42 41 40 39
36 36 36 35 35 35 34 34 35 35 35 36 37 39 40 41 42 43 44 45 46 46 46 47 47 48 48 48 47 46 47 46 45 44 43 42 42 40
37 37 36 35 34 34 34 34 35 35 35 35 35 38 39 40 41 42 43 44 45 46 47 47 48 48 48 48 48 47 47 48 47 47 45 44 42 41
37 36 35 34 33 33 33 33 34 34 35 35 35 36 39 40 41 42 42 44 45 46 46 47 48 48 48 48 48 49 49 48 48 48 46 45 44 42
36 35 34 33 32 32 32 32 32 33 34 35 35 36 38 40 41 42 42 43 44 46 47 48 48 49 49 49 48 48 49 49 49 48 47 46 45 44
36 35 34 33 32 31 31 31 32 32 34 35 35 36 37 39 40 42 43 44 44 46 47 47 48 48 49 49 49 48 47 48 49 49 49 47 45 45
36 35 33 32 31 30 29 29 31 32 33 34 35 36 37 38 39 40 42 43 43 45 47 48 48 48 49 50 49 49 48 48 49 49 49 48 47 46
35 34 32 31 30 29 29 29 30 31 32 33 34 34 36 37 38 39 40 42 42 44 46 47 48 48 48 49 50 50 49 49 49 50 50 49 48 47
35 33 31 30 29 29 29 29 30 31 32 32 32 33 35 36 38 39 40 41 42 43 46 46 47 48 48 49 51 51 50 50 50 50 50 50 50 48
34 32 31 31 30 30 30 30 30 31 31 31 32 33 34 36 37 38 39 40 41 42 45 47 47 48 48 48 50 51 50 50 50 51 51 51 51 50
33 32 31 31 31 31 31 30 30 30 30 30 31 32 33 35 36 37 38 39 40 41 43 46 47 47 48 48 48 50 51 50 51 51 51 52 52 51
33 32 31 31 31 31 31 31 30 30 29 30 30 31 32 33 34 36 37 38 39 40 41 43 45 47 48 47 48 49 49 50 52 52 52 52 51 51
34 33 32 31 31 31 31 30 30 30 29 29 29 30 31 31 32 33 34 36 37 39 40 42 44 46 46 47 48 48 50 50 51 52 51 51 51 52
34 33 32 31 31 31 30 30 30 30 29 28 28 28 29 30 31 32 33 34 36 38 39 41 42 43 45 47 48 49 50 50 50 51 53 52 51 51
34 33 33 32 31 31 30 29 29 28 26 26 25 26 27 28 29 29 31 33 34 36 38 40 41 42 43 45 47 47 49 50 49 50 53 53 52 52
34 33 32 31 31 30 28 27 26 25 24 23 23 24 25 26 27 28 29 30 32 34 37 38 40 41 42 43 45 46 47 49 49 49 51 52 51 51
34 33 32 31 29 28 26 25 24 23 22 21 21 21 21 23 24 26 27 29 29 31 35 36 38 39 40 42 45 46 47 47 48 48 50 52 51 51
33 32 30 28 27 25 24 23 22 21 21 19 19 19 19 20 22 24 25 27 28 30 32 34 36 38 39 42 44 45 45 45 45 45 47 49 50 50
31 29 28 26 25 24 23 22 21 20 20 19 18 18 18 19 20 21 23 25 26 28 30 32 34 36 37 39 41 43 44 44 44 44 45 47 48 48
28 27 26 25 24 23 22 21 20 20 19 18 17 16 17 17 18 20 21 22 24 26 27 29 32 34 35 37 39 41 42 43 43 43 43 43 45 46

GEFSNE_500_meanwind_114.txt.gz
Wind_Speed
24 25 26 26 27 27 28 28 28 29 30 32 33 34 35 36 38 39 40 41 42 42 42 42 43 43 43 43 42 42 42 43 43 43 42 41 39 37
25 26 27 27 27 28 29 30 30 31 31 33 34 36 36 37 39 40 41 42 42 43 44 44 43 43 44 45 45 44 43 42 43 44 43 42 42 40
27 27 28 28 28 29 30 30 31 32 32 33 35 37 38 39 40 41 42 43 44 44 45 46 46 45 45 46 47 47 45 44 43 44 44 44 43 41
29 29 30 30 30 31 31 31 32 32 32 33 35 37 39 40 40 41 43 44 44 45 45 46 47 48 47 47 48 49 48 47 45 45 45 44 43 43
31 31 31 32 32 33 33 33 34 34 33 33 34 37 39 41 41 42 43 44 45 46 46 47 48 49 49 48 48 49 49 49 48 47 47 46 45 44
32 33 33 33 34 35 35 35 35 35 35 34 34 35 37 39 40 41 42 43 45 46 46 47 48 49 50 49 49 49 50 50 49 49 49 48 47 46
34 34 35 35 36 36 36 36 35 35 35 34 34 34 36 38 39 40 41 42 43 44 45 46 48 49 50 51 50 50 50 51 51 51 51 50 49 48
35 36 36 37 37 37 37 36 35 35 34 34 34 34 34 36 38 39 39 40 41 44 45 46 47 48 50 51 51 52 51 51 52 52 52 52 51 50
37 37 38 38 37 37 37 36 35 34 34 33 33 33 34 35 36 38 39 40 41 43 45 45 47 48 49 50 51 52 52 52 52 53 53 52 52 52
38 38 38 38 38 37 36 35 35 34 34 33 33 33 33 34 35 36 37 39 40 42 44 44 47 48 48 49 51 52 52 53 53 53 53 53 53 53
39 39 39 38 38 38 36 35 34 34 33 32 32 32 33 34 35 36 37 38 39 41 43 44 45 48 48 48 49 51 52 53 54 54 53 53 53 53
41 41 40 39 38 38 37 36 34 34 34 33 32 32 33 34 35 36 37 37 38 40 42 43 44 47 47 48 48 50 51 53 54 54 54 54 54 54
42 42 41 40 39 38 37 36 36 35 34 33 33 33 34 35 35 36 37 37 37 38 41 43 43 45 46 47 49 50 50 52 53 54 54 54 54 55
42 42 42 41 40 39 38 37 37 36 35 34 34 34 34 35 36 36 36 36 36 37 39 41 42 44 45 45 47 49 50 51 52 53 53 53 54 54
43 43 42 42 41 40 39 38 37 36 35 35 34 34 34 35 36 36 36 36 35 36 39 40 41 42 43 44 46 48 50 51 52 52 52 52 52 53
45 44 43 43 41 40 39 39 38 37 36 35 35 35 35 35 35 35 35 36 36 35 37 39 40 41 42 43 44 46 48 49 51 51 52 51 51 51
46 44 44 43 42 41 40 39 38 37 36 35 35 34 34 34 34 34 34 34 34 34 35 37 39 40 41 41 41 43 45 47 49 50 50 51 51 51
46 45 44 43 42 40 39 39 38 37 36 35 34 33 33 32 32 32 32 33 32 33 34 36 37 38 39 39 40 41 43 45 47 49 49 49 50 50
47 46 44 43 41 40 39 37 36 35 35 33 32 31 31 30 30 30 30 30 31 32 33 34 35 36 37 37 39 41 42 43 45 46 47 48 48 50
47 46 44 42 41 39 37 36 35 34 33 32 30 30 29 29 28 27 27 27 28 29 31 33 33 34 35 36 38 39 40 42 43 45 46 46 47 48
47 45 43 41 39 37 36 34 33 32 31 30 29 28 27 27 26 25 25 25 25 26 28 29 31 32 34 34 35 37 39 41 42 43 45 46 46 47
44 42 41 39 37 35 34 33 32 30 29 28 27 26 26 26 25 24 23 23 24 25 26 27 28 30 31 32 33 35 37 39 40 41 43 44 45 45
41 39 38 37 35 34 33 32 30 28 28 27 26 25 25 24 23 23 22 21 21 22 23 25 26 27 28 29 31 33 35 37 38 39 40 41 42 43

GEFSNE_500_meanwind_120.txt.gz
Wind_Speed
18 19 20 20 21 21 22 23 23 24 25 26 27 28 29 30 32 33 34 36 37 38 39 41 42 42 42 42 42 43 43 43 43 42 41 43 44 43
19 20 21 21 22 22 23 24 24 25 26 27 28 29 30 31 31 33 35 36 37 38 40 42 43 44 45 45 45 45 45 44 44 43 43 43 43 43
21 21 22 23 23 24 24 25 25 26 27 28 29 30 30 31 32 33 34 36 37 39 41 42 43 44 45 46 47 47 47 46 45 45 44 45 44 43
22 23 24 24 25 25 26 26 26 27 28 29 30 30 31 32 32 33 34 35 37 39 41 43 44 45 46 46 47 47 47 47 47 47 47 47 47 45
24 25 26 26 26 27 27 28 28 28 29 30 31 32 33 33 34 34 35 36 37 38 40 42 44 46 47 47 48 48 48 49 48 47 48 48 48 48
26 27 27 27 28 29 29 30 30 30 30 31 32 33 34 35 35 35 36 36 37 39 40 41 43 45 47 49 49 49 50 51 51 50 50 49 49 49
28 29 29 29 30 30 31 32 32 32 32 33 33 34 35 36 36 36 36 37 37 39 40 41 42 44 45 47 49 50 51 51 52 51 51 51 51 51
30 30 31 31 31 32 33 33 34 34 34 34 35 35 36 36 36 36 37 37 37 39 39 40 42 42 44 46 47 49 50 52 52 52 52 52 52 52
31 32 32 33 33 34 35 35 35 35 36 36 36 37 37 37 37 37 37 37 37 39 39 39 41 42 43 45 46 47 49 50 51 52 52 52 53 53
33 34 34 35 36 37 37 37 37 37 37 38 38 37 37 38 38 37 37 37 38 38 39 39 40 41 42 44 45 47 48 49 50 52 52 52 52 53
35 36 36 37 38 38 39 38 39 39 39 39 38 38 38 38 38 37 37 37 37 37 38 39 39 40 41 42 43 44 46 48 50 51 51 52 53 53
37 38 39 39 40 40 40 40 40 40 40 40 40 39 39 39 38 37 37 37 37 37 38 39 39 39 40 41 42 44 45 47 49 50 51 51 52 53
39 40 41 41 42 42 42 42 42 42 41 41 41 40 40 39 39 38 38 37 37 36 38 38 39 39 40 40 41 43 44 46 47 50 51 52 52 53
42 42 43 44 44 45 44 44 44 43 42 42 41 41 41 40 40 39 38 37 37 37 38 39 39 39 40 40 40 42 43 45 46 47 49 51 52 52
44 44 45 46 46 47 46 46 46 45 44 43 42 41 41 41 40 39 38 38 37 37 37 38 39 39 40 40 40 41 42 43 44 45 47 49 50 51
46 47 47 48 48 49 49 48 48 47 45 44 43 42 42 41 40 40 39 38 37 37 37 38 38 39 39 40 40 41 41 42 43 44 45 47 49 50
49 49 50 50 50 51 50 49 48 47 46 45 44 42 41 41 40 39 38 37 36 36 36 37 37 38 38 38 38 39 40 41 42 43 44 45 47 48
51 52 53 53 53 52 50 49 47 46 45 44 43 42 40 39 39 38 37 36 35 35 35 35 36 36 36 36 37 37 38 39 40 42 43 43 44 46
54 54 55 55 54 52 50 48 47 46 45 43 42 40 39 38 37 36 35 35 34 33 33 33 34 34 34 34 34 36 36 37 38 40 41 41 42 43
55 55 56 55 53 51 49 47 46 44 43 42 40 39 37 36 35 35 34 33 32 31 31 31 31 32 32 32 32 34 35 35 36 37 39 40 41 42
56 56 55 53 51 49 47 45 43 42 41 39 38 36 35 35 34 33 32 31 31 30 30 30 30 31 31 31 31 32 33 34 35 36 38 39 40 41
54 54 52 49 47 46 44 42 40 39 38 36 35 34 33 33 32 32 31 30 30 29 28 28 29 29 29 29 29 30 32 33 34 35 37 38 38 39
51 50 48 45 43 41 39 37 36 35 34 32 31 31 31 30 29 29 29 28 28 28 27 27 27 28 28 28 28 29 30 32 33 34 34 36 37 38

GEFSNE_500_meanwind_126.txt.gz
Wind_Speed
15 16 16 17 17 18 19 20 21 21 21 21 21 22 23 23 24 25 26 26 27 28 29 30 32 33 34 34 35 36 36 36 36 36 37 38 38 38
17 18 18 19 19 20 21 21 22 22 23 23 23 23 24 24 24 25 26 27 28 28 30 31 32 33 34 34 36 37 38 38 38 38 38 39 40 40
19 20 20 21 22 22 22 23 23 24 24 24 25 25 25 25 26 26 26 27 27 28 29 31 32 33 34 35 36 38 39 39 39 40 40 41 40 41
21 22 23 23 24 24 24 25 25 25 25 26 26 27 27 27 27 28 27 27 28 29 29 31 32 33 35 36 37 38 39 40 41 41 41 42 43 42
23 24 24 25 25 26 26 26 26 27 27 27 27 28 29 29 29 29 29 29 30 30 30 31 32 33 35 36 37 38 39 40 41 42 43 43 44 44
25 26 26 27 27 28 28 28 28 28 28 29 29 30 30 31 31 30 31 31 32 32 32 32 33 33 35 36 38 39 39 40 41 42 43 44 44 45
27 27 28 28 29 29 29 29 29 30 30 31 31 32 32 32 32 32 32 32 33 34 34 34 34 34 35 36 37 38 39 40 41 42 43 44 45 46
29 29 29 29 30 30 30 31 32 32 32 32 33 34 34 34 34 34 34 34 34 36 36 35 35 35 35 36 37 38 39 40 41 42 43 44 45 46
30 30 30 31 31 32 32 33 34 34 35 35 35 35 36 36 36 36 36 36 36 37 37 36 37 36 36 37 37 38 39 40 41 42 43 44 44 45
32 32 32 33 34 35 35 35 35 36 36 37 37 37 38 38 39 39 38 38 38 38 39 38 38 38 37 37 37 38 38 40 41 42 43 44 45 45
34 34 34 35 36 37 37 37 37 38 39 39 39 39 39 40 41 41 41 40 39 39 40 40 39 38 38 37 38 38 38 38 40 42 43 44 45 46
35 35 36 37 38 38 39 39 39 40 41 42 42 42 42 41 42 43 43 43 42 40 41 41 40 39 38 37 38 38 38 38 39 41 42 43 44 45
37 37 38 39 40 40 41 41 42 43 43 44 44 44 44 44 44 44 44 44 43 41 41 42 41 40 39 37 37 37 38 38 38 39 40 41 43 44
39 40 41 42 42 43 43 44 45 46 46 46 46 46 46 46 45 45 44 43 43 42 42 42 42 40 39 38 36 37 37 37 38 38 39 40 41 42
41 42 43 44 45 45 46 47 48 49 49 49 49 49 49 48 46 46 45 44 43 42 42 42 42 41 40 38 37 37 37 37 37 38 39 40 40 41
43 44 45 46 47 48 48 49 51 51 51 51 51 51 50 48 47 46 45 45 44 43 42 42 42 42 41 39 38 37 37 36 36 37 38 39 40 40
46 46 47 48 49 50 51 52 52 52 52 51 51 50 49 48 47 46 45 44 43 42 41 41 41 41 40 39 37 36 36 36 36 36 37 38 39 39
49 50 50 51 52 53 53 53 53 53 52 52 51 50 49 48 46 44 43 42 41 41 40 39 38 38 38 37 37 36 35 35 35 35 36 36 36 38
51 52 53 53 54 54 54 53 52 52 51 50 49 48 47 45 44 42 41 41 40 39 38 38 37 37 36 34 34 35 34 34 34 35 35 35 35 36
53 54 54 55 54 54 53 52 52 51 50 48 47 45 44 42 41 40 39 39 38 38 37 37 36 36 36 34 33 32 33 33 33 33 33 34 35 35
54 54 54 54 53 52 51 51 50 49 47 46 44 42 41 40 38 38 38 38 38 37 36 35 35 36 35 34 32 31 32 33 33 33 33 33 34 34
55 54 53 52 51 50 49 48 47 46 44 43 42 40 39 38 37 36 36 35 36 35 34 33 33 33 33 32 31 31 31 32 32 31 31 31 32 32
54 52 51 50 49 47 46 45 43 42 41 40 38 38 37 36 35 34 33 33 33 32 31 31 31 31 30 30 30 30 30 30 31 30 30 30 30 31

GEFSNE_500_meanwind_132.txt.gz
Wind_Speed
7 8 8 9 9 10 11 11 12 13 13 14 15 15 16 17 17 18 19 19 20 20 21 22 23 24 25 26 27 29 30 31 32 33 33 33 35 36
9 10 11 11 12 13 13 13 14 15 16 16 17 17 17 18 19 19 20 20 21 21 22 23 24 25 26 27 27 29 30 31 32 34 35 36 35 36
11 12 13 13 14 15 15 16 16 17 17 18 18 19 19 19 20 21 21 22 22 23 23 24 25 26 27 27 28 29 31 32 33 34 35 36 37 38
13 14 15 16 17 17 18 18 18 19 19 20 20 21 21 21 22 23 23 24 24 25 25 26 26 27 28 28 29 30 31 32 34 35 36 37 39 40
16 16 17 18 19 19 20 20 21 21 22 22 23 23 23 24 25 25 26 26 27 27 27 28 28 29 29 30 31 31 32 33 34 36 37 38 39 41
18 19 20 20 21 21 22 22 23 24 24 24 25 25 26 27 27 27 28 28 29 29 29 30 30 30 31 32 32 33 34 34 35 36 37 38 39 41
21 21 22 22 23 24 24 25 25 26 26 26 27 28 29 29 30 30 30 30 31 32 32 32 33 33 33 33 34 34 35 35 36 37 38 39 40 41
23 24 25 25 26 26 26 27 27 28 28 29 30 30 31 32 32 33 33 33 33 35 35 35 36 35 35 35 35 36 37 37 37 38 38 39 41 42
26 26 27 28 28 29 29 29 30 30 31 31 31 32 33 34 35 35 35 35 36 37 38 37 38 38 38 38 38 38 39 39 39 39 40 40 41 42
28 29 29 29 30 31 31 31 31 33 34 34 34 35 36 37 38 38 38 39 38 40 41 39 39 40 40 40 41 40 41 41 41 41 41 41 42 42
31 31 32 32 32 33 33 33 34 35 36 37 37 38 38 39 41 41 42 43 42 42 44 43 42 42 42 43 43 43 42 42 42 42 42 42 42 42
33 34 34 34 35 35 36 36 37 37 38 39 40 41 42 42 44 45 45 46 45 44 46 47 46 46 45 44 45 45 44 44 43 43 43 43 43 43
35 36 37 37 37 38 38 39 40 40 40 41 42 43 44 46 47 48 49 49 49 48 48 50 49 49 49 46 46 46 46 46 45 44 44 44 44 44
37 38 38 39 40 41 41 42 42 43 43 44 45 46 47 49 50 51 52 52 52 52 52 52 52 51 51 49 46 46 47 47 46 45 44 44 44 44
39 39 40 40 42 43 44 45 45 46 47 48 48 50 51 52 53 54 55 55 54 53 53 54 53 53 52 50 47 46 46 46 46 46 45 44 44 44
41 42 43 44 45 45 46 47 48 49 50 51 52 53 54 55 56 56 56 56 55 54 54 53 52 52 51 49 47 45 45 45 45 45 45 44 44 44
43 44 45 46 47 47 48 49 51 53 54 55 56 56 56 57 57 57 57 56 55 53 52 51 51 50 48 46 44 43 43 43 44 44 44 43 42 43
46 47 47 48 49 50 51 52 54 56 57 58 58 58 58 57 57 56 55 54 53 51 50 48 48 48 46 44 44 44 43 42 42 43 44 43 42 42
48 48 49 50 50 51 53 54 56 57 58 58 58 58 57 56 55 54 53 52 50 48 46 45 45 45 44 43 42 44 43 42 41 41 41 41 40 40
48 49 50 50 52 53 55 56 56 57 57 56 56 56 55 54 53 51 50 49 47 46 44 44 43 43 43 42 40 40 42 41 40 39 38 38 38 38
50 50 51 52 54 55 55 56 55 55 55 55 54 53 51 50 48 47 46 45 44 43 42 41 40 41 40 39 38 36 37 38 37 37 36 36 36 36
51 52 53 54 54 54 54 54 54 53 53 51 50 48 47 46 45 44 43 42 41 40 39 38 38 38 37 36 34 33 33 34 35 34 34 35 35 34
52 52 53 53 53 53 52 52 52 51 49 47 45 44 44 43 42 41 40 38 36 35 34 33 32 32 32 32 32 31 31 31 32 32 32 32 33 33

GEFSNE_500_meanwind_138.txt.gz
Wind_Speed
8 9 9 10 10 10 10 10 11 12 13 13 14 14 15 15 16 17 17 18 18 18 19 20 21 22 23 23 24 25 25 26 26 27 28 29 30 32
10 10 11 12 12 12 13 13 13 14 14 15 16 16 17 17 18 19 19 19 20 20 21 21 22 23 24 24 25 26 27 28 28 29 29 30 31 32
12 13 13 14 14 15 15 16 16 17 17 18 18 19 20 20 21 21 22 22 22 23 23 23 24 25 25 26 26 27 28 29 29 30 31 31 31 32
15 15 16 16 17 17 18 18 19 20 20 21 21 22 22 23 23 24 24 25 25 25 26 26 26 27 28 28 29 29 30 30 31 31 31 32 32 33
17 17 18 19 19 20 20 21 21 22 23 23 24 24 25 25 26 26 27 27 27 28 28 29 29 30 30 31 31 32 32 33 33 33 34 34 34 34
19 20 21 21 22 22 23 23 24 24 25 26 26 27 27 28 28 29 29 29 30 30 31 32 32 32 33 33 33 34 35 35 36 36 36 37 37 37
22 23 24 24 25 25 26 26 26 27 28 28 29 29 30 30 31 31 31 32 33 34 34 35 35 35 36 36 36 37 37 38 38 38 39 39 39 39
25 26 27 27 27 28 29 29 30 30 31 31 31 32 32 33 34 34 34 34 35 37 37 37 38 38 38 39 39 40 40 40 40 41 41 41 41 41
28 29 29 30 30 31 32 32 33 33 33 34 34 35 35 36 37 37 38 38 38 39 40 39 41 41 42 42 43 43 43 43 43 43 44 44 45 44
30 31 32 32 33 33 34 34 35 36 36 37 37 37 38 39 40 40 41 41 41 42 43 43 43 44 45 45 46 46 46 46 46 46 46 47 47 47
33 34 34 35 36 36 36 37 37 38 39 40 40 41 41 42 43 44 44 44 44 44 46 47 46 47 47 48 49 49 49 49 49 49 50 49 49 49
35 36 37 37 38 39 39 39 39 40 41 42 43 44 45 46 46 47 47 47 47 47 48 50 50 50 49 49 51 52 52 53 53 52 52 52 52 52
37 38 39 40 41 41 41 42 43 43 43 44 45 46 47 48 49 49 50 50 50 51 52 53 52 53 53 52 52 53 55 56 56 55 55 54 53 53
39 40 41 41 42 42 44 45 46 46 46 47 48 49 49 50 50 51 52 52 53 54 55 56 56 56 57 57 56 55 56 57 56 55 55 54 53 52
41 42 43 44 44 45 46 47 47 48 49 50 50 51 52 53 54 54 55 57 57 57 59 60 61 61 61 60 59 58 57 56 56 55 55 54 53 53
42 43 44 45 46 48 49 49 50 51 52 53 54 54 55 55 56 57 58 59 59 60 62 63 63 62 62 61 60 58 57 55 53 53 53 52 52 51
43 44 46 47 49 50 51 52 52 53 54 55 55 56 57 58 59 60 61 62 62 62 61 61 61 60 60 60 57 55 53 52 50 49 49 48 48 47
46 47 49 50 50 51 52 52 53 54 55 55 56 57 58 59 59 60 61 61 61 60 60 59 58 58 57 55 53 51 50 49 49 48 47 45 44 44
48 49 50 50 50 51 52 52 52 54 55 56 57 58 58 58 59 59 59 60 59 58 57 55 54 54 52 48 47 48 47 46 45 44 43 42 41 40
49 50 50 51 52 52 52 52 53 54 55 55 56 56 57 57 58 58 58 57 55 53 51 50 49 49 47 45 43 42 43 43 41 39 38 38 39 38
50 50 51 52 53 53 52 53 53 54 54 55 55 55 56 56 56 55 54 52 50 49 47 46 45 45 45 43 41 38 38 39 38 37 36 36 35 36
51 51 52 52 53 53 53 53 53 54 55 55 56 56 56 55 53 51 49 47 46 45 44 42 42 42 41 40 38 36 35 35 35 35 34 34 34 33
51 52 52 52 52 52 52 52 53 54 54 54 54 54 53 51 49 47 45 44 43 42 40 39 38 38 37 36 35 33 32 32 32 31 30 31 32 31

GEFSNE_500_meanwind_144.txt.gz
Wind_Speed
8 8 8 8 9 9 9 10 11 12 12 12 13 14 14 15 16 16 16 17 17 18 18 19 19 20 21 21 21 22 22 22 23 23 24 24 24 24
10 10 10 10 11 11 11 12 13 14 14 15 16 16 17 17 18 19 19 19 20 20 21 21 22 22 23 23 23 24 24 25 25 25 26 26 27 27
12 12 12 13 13 13 13 14 15 16 17 17 18 19 19 20 20 21 21 22 22 23 23 24 24 24 25 25 25 25 26 26 27 27 28 28 29 29
14 14 14 15 15 15 16 16 17 18 19 20 21 22 22 23 23 24 24 25 25 25 26 26 26 27 27 27 28 28 29 29 30 30 30 30 31 31
16 16 17 17 17 18 18 19 20 21 22 23 24 24 25 25 26 26 27 27 28 28 29 29 29 30 30 31 31 32 32 32 32 33 33 33 33 34
18 19 19 20 20 21 22 22 23 24 25 25 26 27 28 29 29 29 30 30 31 32 32 33 33 33 33 34 34 35 35 35 35 36 36 36 36 37
21 21 22 22 23 24 24 25 26 27 28 28 29 30 31 31 32 33 33 34 34 35 35 36 36 36 37 37 37 38 38 38 38 38 38 39 39 39
24 24 24 25 26 27 27 28 29 29 30 31 32 33 33 34 35 36 36 36 37 38 38 38 40 40 40 41 40 40 40 41 41 41 41 42 42 42
27 27 28 28 29 30 31 31 32 32 33 34 35 35 36 37 38 39 39 39 40 41 42 42 42 43 43 44 44 44 44 44 44 44 44 45 45 45
30 30 31 31 31 33 34 34 35 36 37 37 38 38 39 40 41 42 42 43 43 44 44 44 45 45 46 46 46 46 47 47 47 47 48 48 48 48
32 32 33 34 35 36 36 37 38 39 39 40 40 41 42 43 44 44 45 46 46 46 47 47 48 48 48 48 49 49 49 49 50 50 51 51 51 51
33 35 35 36 37 37 38 39 40 41 42 43 43 44 45 46 47 47 48 49 50 50 50 50 50 50 50 50 52 52 52 53 53 53 53 53 54 54
35 36 37 37 38 39 40 41 42 43 44 45 46 47 47 48 49 50 51 52 52 52 53 53 53 53 53 53 53 54 55 55 55 56 56 55 55 55
36 38 37 37 39 40 41 42 43 44 46 47 48 49 50 50 51 51 52 53 53 54 54 55 56 56 56 56 56 56 57 58 59 58 57 56 55 54
37 38 39 40 41 42 44 44 45 46 47 49 50 51 51 52 52 53 54 54 55 55 56 56 57 57 57 58 57 57 58 58 58 57 56 55 54 53
40 40 40 41 42 43 44 45 46 48 49 51 51 51 52 53 54 54 54 55 56 56 57 57 57 58 58 58 58 57 57 56 55 55 54 53 51 50
40 41 41 43 45 46 47 48 49 50 51 51 51 52 54 54 55 55 55 56 56 56 57 57 57 57 57 58 58 56 55 54 53 53 51 51 50 49
42 42 44 46 47 48 49 50 50 51 52 52 52 53 54 54 55 55 55 56 56 56 56 56 57 57 56 55 55 54 52 51 50 49 49 49 48 48
44 44 46 47 48 48 49 49 50 51 51 52 53 53 54 54 54 54 55 55 55 55 55 56 56 55 54 52 50 50 49 48 47 46 46 45 45 44
45 46 46 47 48 48 49 49 50 51 51 52 52 52 52 52 53 53 53 53 54 55 55 54 54 53 52 50 48 46 46 45 44 43 43 44 43 43
45 46 47 48 48 48 49 50 50 50 51 51 50 50 50 51 51 51 52 52 53 52 52 50 50 49 48 45 42 40 40 40 40 39 39 40 40 39
46 47 48 49 49 48 49 49 50 50 49 49 49 49 50 50 50 50 50 50 49 48 47 46 45 43 42 40 39 37 36 36 37 37 37 37 36 35
46 47 48 48 48 48 48 48 49 49 49 49 49 48 48 47 47 47 47 46 45 44 42 41 40 39 38 37 36 34 33 33 34 34 34 33 32 31

GEFSNE_500_meanwind_150.txt.gz
Wind_Speed
10 9 8 7 7 8 8 8 8 8 9 9 10 11 12 12 13 14 15 15 16 16 17 17 18 18 19 19 19 20 20 20 20 21 21 21 21 22
11 10 10 9 9 9 10 10 10 11 11 12 12 13 14 15 16 17 17 18 18 19 20 20 20 21 21 21 22 22 22 23 23 23 24 24 24 25
12 11 11 11 11 11 12 12 13 13 14 15 15 16 17 18 18 19 20 20 21 22 22 22 23 23 23 24 24 25 25 26 26 26 26 27 27 27
13 13 13 13 13 14 14 15 15 16 17 17 18 19 20 21 21 22 22 23 23 24 24 25 26 26 26 27 27 28 28 29 29 29 30 30 30 30
15 14 15 15 16 16 17 17 18 19 19 20 21 22 23 23 24 25 25 26 26 27 27 27 28 29 29 30 30 31 31 31 32 32 32 32 33 33
17 17 17 17 18 19 19 20 21 21 22 23 24 25 25 26 26 27 27 28 29 30 30 30 31 31 32 33 34 34 34 34 34 35 35 36 36 36
19 19 20 20 21 21 22 23 23 24 25 26 27 27 28 29 29 30 31 32 32 33 33 33 34 34 35 36 36 37 37 38 39 39 39 39 39 40
21 22 22 23 23 24 25 26 26 27 28 29 29 30 31 32 33 34 35 35 35 37 38 37 38 38 38 39 40 39 40 41 42 42 42 42 42 42
23 24 24 25 25 27 28 28 29 30 31 32 32 33 34 35 36 37 38 38 38 39 41 41 42 42 42 43 44 44 44 44 44 44 44 44 44 44
25 26 26 27 28 29 29 30 31 32 33 34 35 36 37 38 38 39 40 41 41 42 44 44 44 45 45 45 46 46 46 46 45 45 45 46 47 47
26 27 28 29 30 31 32 32 33 34 35 36 37 38 38 39 40 41 42 43 44 44 46 47 47 48 47 47 48 48 48 48 48 48 48 49 50 50
29 30 31 32 32 33 34 34 35 36 37 38 39 39 40 41 42 43 44 46 46 46 48 49 49 50 49 48 49 50 50 51 51 51 52 52 53 53
31 31 32 33 34 35 35 36 37 38 39 40 40 41 42 43 44 46 47 48 48 48 49 50 50 51 51 50 50 51 53 53 53 53 54 55 55 55
33 33 33 34 36 37 38 39 40 41 41 41 42 43 44 45 47 48 49 49 49 49 49 50 51 52 53 53 53 53 54 55 56 56 56 55 55 55
33 34 35 35 36 37 39 40 41 42 42 43 45 46 47 48 49 49 49 49 49 49 50 51 52 53 54 55 55 55 55 55 55 55 55 55 54 53
35 35 36 37 38 39 40 41 42 43 44 45 46 47 48 48 49 49 48 49 49 50 51 52 53 53 54 54 55 54 54 54 53 53 53 52 51 51
36 37 37 38 40 41 42 42 42 43 44 45 46 47 48 48 48 48 48 49 49 50 50 51 52 52 53 54 54 53 53 52 52 52 51 49 48 48
39 39 40 40 41 42 43 43 43 44 45 46 46 47 48 49 49 48 49 50 50 49 49 50 50 51 51 52 53 53 51 51 50 48 48 46 45 44
40 40 41 42 43 43 44 45 45 46 46 46 46 47 47 48 48 49 49 49 50 50 50 50 50 50 50 49 49 50 48 47 46 44 43 42 41 40
41 42 43 43 44 44 45 45 46 46 46 46 46 47 48 49 50 49 49 49 49 50 50 50 50 49 49 48 46 44 44 44 42 41 40 39 38 38
41 42 43 43 43 44 45 46 46 46 47 48 49 49 49 50 50 49 49 49 50 50 49 49 48 47 46 45 43 41 41 41 40 39 37 36 35 35
42 43 43 43 43 44 45 46 46 47 47 48 49 48 49 49 49 49 49 48 49 49 48 46 45 44 43 43 41 40 39 38 37 37 36 35 34 32
42 42 43 43 44 45 45 46 46 47 47 47 48 48 48 48 49 48 48 48 47 46 45 44 42 42 41 41 40 39 38 36 35 34 33 32 31 30

GEFSNE_500_meanwind_156.txt.gz
Wind_Speed
15 14 13 12 11 10 9 8 8 7 7 7 7 7 8 8 9 10 10 11 11 12 13 13 14 14 15 15 16 17 18 19 19 20 20 21 22 22
16 15 14 14 13 11 11 10 10 9 9 9 9 10 10 11 11 12 13 14 14 15 15 15 16 16 17 18 19 20 20 21 21 22 22 23 24 25
17 16 16 15 14 13 13 12 11 11 11 11 12 12 13 13 14 15 16 16 17 17 18 18 19 19 20 21 22 22 23 23 24 24 25 25 26 27
17 17 16 15 15 15 14 14 13 14 14 14 15 15 16 16 17 18 18 19 19 20 20 21 21 22 23 23 24 25 25 26 27 27 28 29 30 30
18 18 17 16 16 16 16 16 16 16 16 17 18 18 19 19 20 20 21 21 22 23 24 24 25 25 26 27 28 28 29 30 31 32 33 33 34 34
19 19 19 18 18 18 18 18 19 19 19 20 21 21 22 23 23 24 24 25 25 26 27 28 28 29 30 31 32 33 34 35 36 36 37 37 38 38
20 20 20 20 20 20 20 21 21 22 22 23 23 24 25 25 26 27 27 28 28 29 30 30 31 32 33 34 36 37 38 38 39 39 40 40 41 42
22 22 22 22 22 22 23 23 24 24 25 25 26 26 27 28 29 29 29 30 30 32 32 33 34 35 36 37 39 40 41 41 41 42 42 43 44 44
24 24 24 24 24 24 25 25 26 26 27 27 28 29 29 30 31 31 31 31 32 34 35 35 37 38 39 40 42 43 44 44 44 44 45 46 46 47
25 25 25 25 26 26 27 27 28 28 29 30 30 31 32 32 33 33 34 34 35 37 39 38 39 41 41 42 43 44 45 46 47 48 48 48 49 49
27 27 27 27 27 28 29 29 30 31 31 31 32 33 34 35 36 37 38 38 38 40 42 42 42 43 43 43 45 47 48 48 49 49 50 51 51 51
27 28 29 29 30 30 31 31 32 33 34 34 34 36 37 37 38 39 41 42 43 42 44 45 45 46 45 45 47 48 48 49 50 50 51 52 53 52
28 29 30 31 32 32 32 33 34 35 36 36 37 38 39 39 40 42 43 44 45 46 46 47 48 48 48 47 47 48 49 49 50 51 52 53 53 54
30 30 32 33 35 35 35 36 36 37 38 38 39 40 41 42 43 44 45 45 46 47 48 49 49 50 50 49 48 48 49 50 51 52 53 53 53 53
31 32 33 33 35 35 37 38 39 40 40 41 41 42 43 45 45 46 46 47 48 48 48 49 49 50 50 50 49 50 50 50 52 53 52 52 52 53
31 32 33 34 36 37 37 39 40 41 42 43 43 45 46 47 47 47 48 48 49 48 49 50 51 51 51 51 52 52 52 53 53 53 52 51 52 53
33 33 34 35 36 38 40 41 42 43 44 45 45 46 47 47 48 48 49 49 49 49 50 50 51 51 52 52 53 53 53 54 53 53 52 51 51 51
34 35 35 37 38 39 41 42 42 43 45 46 46 47 48 48 49 49 50 50 51 51 51 51 51 52 52 53 54 54 54 53 53 52 51 50 49 49
36 37 38 39 39 40 41 42 43 44 45 46 47 47 47 48 49 50 50 51 52 52 52 52 52 53 53 53 52 53 53 52 51 49 49 49 47 45
38 38 38 39 39 40 41 42 43 44 45 46 47 47 48 49 50 51 51 52 52 53 53 53 54 54 54 53 52 51 51 50 48 48 46 45 44 43
39 39 40 40 40 41 42 43 44 45 46 47 48 49 49 50 51 51 51 52 52 52 52 53 53 53 52 51 49 47 47 47 47 45 43 42 40 39
40 40 40 41 41 43 44 45 46 47 48 49 49 49 50 50 51 51 51 51 51 51 51 51 50 48 47 46 45 43 42 42 42 42 40 39 37 35
39 39 40 42 43 44 45 46 47 48 48 48 48 48 49 49 49 49 49 49 49 49 49 48 47 47 46 44 43 42 40 39 39 38 36 36 34 32

GEFSNE_500_meanwind_162.txt.gz
Wind_Speed
17 17 16 16 16 15 14 14 13 12 12 12 12 11 11 11 12 12 12 13 13 14 14 15 15 16 17 17 18 18 18 19 19 20 21 21 22 23
18 18 18 18 17 17 16 16 15 15 15 15 14 14 14 14 13 13 14 15 16 17 17 17 18 18 19 20 20 21 21 21 22 23 23 24 25 25
19 19 19 18 18 18 17 17 17 17 17 16 16 16 16 16 16 16 17 18 19 19 20 20 21 21 22 22 23 23 24 24 25 26 26 27 28 29
20 20 20 19 20 19 19 19 18 18 18 18 18 18 18 19 19 20 20 21 21 22 23 23 24 24 25 25 25 26 27 28 28 29 30 31 31 32
21 21 21 21 21 20 20 20 20 20 20 20 20 21 21 22 22 23 23 24 24 25 25 26 27 27 28 28 29 30 31 31 32 33 33 34 35 36
22 22 22 22 22 22 21 22 22 22 22 22 23 23 24 24 25 25 26 26 27 28 29 30 30 31 31 31 32 33 34 35 36 36 37 38 38 39
24 23 23 23 23 24 23 23 24 24 24 24 25 25 26 26 27 28 28 29 30 31 31 32 32 33 33 34 35 36 37 38 38 39 40 40 41 41
25 24 24 24 25 25 25 25 25 25 26 26 27 27 28 29 30 30 31 31 32 33 33 34 36 36 36 37 37 38 39 40 41 42 43 43 44 44
25 25 25 25 26 26 27 28 27 27 27 28 28 28 29 30 31 32 33 34 34 35 36 37 38 38 39 39 41 42 43 43 44 45 46 46 47 47
26 27 27 27 28 29 29 30 30 29 30 30 30 31 31 32 32 33 34 35 36 37 38 38 39 40 41 42 43 44 45 46 47 48 48 49 49 49
27 28 29 29 30 30 31 31 32 31 32 32 33 34 35 35 35 36 37 38 39 40 42 42 42 43 43 45 47 49 49 49 50 50 51 51 51 51
28 29 30 30 31 32 33 33 33 33 33 34 35 36 37 38 39 40 41 42 42 43 44 45 45 46 47 47 49 51 52 52 52 52 52 52 52 53
29 30 31 31 31 32 32 33 34 35 35 36 37 38 40 41 42 43 43 44 45 45 46 47 48 50 51 50 50 51 53 53 53 53 53 54 54 55
30 30 31 32 33 33 34 35 36 37 38 39 40 41 42 43 44 45 46 47 47 48 49 51 51 52 52 52 52 52 52 53 54 54 55 55 56 57
31 32 33 33 34 34 35 36 37 38 39 40 41 42 44 45 45 46 47 49 50 51 52 53 53 54 54 54 54 53 54 54 56 56 57 57 58 58
33 33 34 34 35 35 36 37 38 39 40 42 44 45 46 46 47 48 49 50 51 52 53 53 54 55 55 55 55 55 56 56 56 57 56 57 56 56
34 33 34 35 37 37 38 39 39 40 41 43 44 46 47 47 48 49 50 51 52 52 52 53 55 55 56 56 56 57 57 57 57 56 56 55 54 53
35 35 36 37 38 39 40 40 40 42 43 44 45 46 47 48 49 50 50 51 52 52 52 53 54 55 56 57 57 58 57 56 55 55 55 53 51 50
37 37 38 39 39 40 41 42 43 44 45 46 47 47 48 49 50 51 52 53 53 53 53 54 54 55 55 55 54 56 56 55 55 54 53 51 50 49
37 37 38 39 40 40 41 43 44 45 46 47 48 48 49 50 51 52 52 53 53 53 54 54 55 55 56 55 54 54 54 54 53 51 50 50 48 47
37 37 37 38 40 41 42 42 43 44 46 47 47 48 49 50 51 52 52 52 53 53 52 53 53 54 53 53 52 51 50 51 51 49 48 45 43 41
38 39 39 39 39 41 42 42 43 45 46 47 47 48 49 50 51 51 51 51 52 51 51 52 52 52 51 50 49 49 48 48 47 45 43 40 37 36
38 39 39 39 39 40 41 42 43 44 45 46 47 48 49 49 50 50 50 50 49 49 50 50 50 49 48 48 47 46 45 43 41 40 39 37 35 34

GEFSNE_500_meanwind_168.txt.gz
Wind_Speed
19 19 18 17 17 16 16 16 16 15 14 14 14 13 13 13 13 13 13 13 13 13 13 13 14 15 15 16 16 17 18 18 19 20 20 21 21 22
20 20 20 19 18 18 18 18 18 17 16 16 16 16 15 15 15 15 15 14 14 14 15 16 16 17 18 18 19 20 21 21 22 22 23 23 24 24
22 22 22 21 20 20 20 19 19 18 18 18 18 18 17 17 17 17 17 17 17 17 18 18 19 19 20 21 22 23 24 24 25 25 26 26 26 27
23 23 23 22 22 21 21 20 20 20 21 20 20 20 20 20 19 18 18 19 20 20 21 21 21 22 23 23 24 25 26 27 27 28 28 29 29 30
23 23 24 24 23 23 22 22 22 22 22 22 22 22 22 21 21 21 21 22 22 23 23 24 24 25 26 27 28 28 29 30 30 31 31 32 32 33
24 24 24 25 25 25 24 24 24 23 23 24 24 24 24 24 24 24 25 25 25 25 26 26 27 28 29 30 30 31 32 33 34 34 35 35 36 36
24 24 24 25 26 26 25 26 25 25 25 26 26 26 26 27 27 28 28 27 27 28 28 29 30 30 31 32 33 34 35 36 36 37 37 37 38 39
25 24 24 25 26 27 27 27 27 28 28 28 28 29 28 29 29 29 29 29 29 30 31 32 33 34 35 35 36 36 37 38 38 39 39 40 40 41
24 24 24 24 24 26 27 28 28 29 29 29 29 30 30 30 30 30 31 31 32 33 34 34 36 36 37 38 38 39 39 40 40 40 41 42 43 44
24 23 25 25 26 27 28 28 28 30 31 31 31 32 32 33 33 33 34 35 35 36 37 37 38 39 40 41 41 41 42 42 43 43 44 45 46 47
24 25 25 26 27 29 29 29 30 32 33 33 34 34 34 35 35 35 35 37 37 39 39 40 41 41 42 43 44 44 45 46 46 46 47 48 49 49
25 26 27 28 29 29 29 30 31 33 34 35 35 35 35 36 37 37 37 38 40 41 41 42 43 44 44 45 45 46 47 47 48 48 49 50 51 51
26 27 28 29 29 30 31 32 33 34 34 35 36 37 38 38 39 39 40 40 41 41 42 43 44 45 46 46 46 47 48 48 49 49 50 50 51 51
27 28 29 29 30 31 33 32 33 34 35 37 38 38 39 40 41 42 42 43 44 44 45 46 46 47 47 48 48 48 49 50 50 50 51 52 52 52
29 30 32 33 33 34 35 35 36 36 36 37 38 39 40 41 42 43 44 45 45 46 46 47 48 48 48 48 49 50 50 51 52 53 53 53 54 54
31 32 32 33 34 35 36 36 36 36 37 38 39 41 41 42 44 45 45 46 45 45 46 47 47 48 49 49 50 51 52 53 53 53 53 53 53 54
33 34 34 34 36 36 36 36 37 38 39 40 41 42 43 44 44 45 46 46 46 46 46 47 47 48 49 50 51 52 53 54 54 54 53 53 53 53
34 35 35 35 36 37 38 37 38 38 39 40 42 42 43 43 44 44 45 45 46 47 48 49 50 50 50 51 52 53 53 53 53 53 53 53 52 52
35 35 36 36 37 38 38 39 39 40 41 41 42 42 43 44 45 45 45 46 46 48 50 51 51 52 52 53 53 53 53 53 52 52 52 52 52 51
36 37 38 38 39 39 39 40 40 41 41 41 42 43 44 44 45 46 47 48 49 50 51 51 51 51 51 52 52 52 51 51 50 50 50 50 50 49
36 37 38 38 39 39 40 40 40 40 41 41 42 43 43 44 45 46 47 48 48 49 49 49 49 49 50 50 49 48 48 48 48 48 48 47 45 44
37 37 38 38 39 39 39 40 40 41 41 41 42 42 43 43 45 46 47 46 46 46 46 47 47 47 47 47 46 46 46 46 45 45 44 43 41 39
36 36 37 37 37 38 39 40 41 41 41 41 42 42 42 43 43 44 43 43 44 44 44 44 44 44 44 44 45 44 44 43 43 42 40 38 36 35

GEFSNE_500_meanwind_174.txt.gz
Wind_Speed
18 18 18 17 17 16 16 16 16 15 15 15 15 15 14 14 14 13 13 13 13 13 14 14 14 14 14 14 14 15 16 16 16 17 17 18 18 19
20 20 20 20 19 18 18 18 17 17 17 17 17 17 16 15 15 15 16 15 16 15 15 15 15 15 16 16 17 17 18 18 19 19 20 21 21 22
21 21 21 21 21 20 20 20 20 18 18 19 18 18 18 18 17 18 18 18 18 18 18 17 17 18 19 19 19 20 20 20 21 22 23 24 24 25
21 22 22 23 22 21 21 20 20 20 20 20 21 20 20 21 20 20 20 20 20 20 20 20 20 21 21 21 22 22 22 23 24 25 26 26 27 28
21 21 21 22 22 22 22 21 21 21 22 23 23 23 22 23 22 22 22 22 22 22 22 23 24 24 24 24 24 25 26 26 27 28 29 30 30 31
19 20 20 20 21 22 22 22 23 23 23 24 24 25 24 24 24 24 24 24 24 24 25 25 26 26 26 26 27 29 29 30 30 31 32 33 33 33
21 20 20 21 22 22 23 23 24 24 24 24 24 25 26 26 25 26 26 26 26 27 28 28 28 28 28 29 30 32 33 33 34 35 35 36 36 36
22 22 22 23 23 23 24 24 25 25 25 26 26 26 26 28 28 28 29 29 29 30 30 30 30 30 31 32 33 34 35 36 37 38 38 39 40 39
22 23 23 23 24 24 24 25 25 26 26 26 26 26 28 30 30 31 31 31 31 32 33 33 34 34 34 35 36 37 38 38 39 40 41 42 42 42
22 23 24 24 24 25 26 26 26 26 27 28 29 29 30 31 31 32 33 33 34 35 36 35 35 36 37 37 38 39 40 41 42 43 43 43 43 43
23 23 24 25 25 26 26 27 27 28 29 30 30 32 33 34 33 33 34 36 36 37 38 38 38 39 40 40 41 42 42 43 44 45 44 44 45 46
23 23 24 25 26 27 29 29 30 31 31 32 33 34 34 35 35 35 36 37 38 39 40 41 41 42 43 44 45 45 45 46 46 46 46 47 47 48
25 25 25 26 27 28 29 30 31 32 33 33 34 34 35 36 36 37 38 39 39 39 41 42 42 43 45 46 46 47 47 47 48 48 47 48 49 49
27 27 26 27 28 29 30 31 32 33 34 35 35 35 36 36 37 38 39 40 40 41 42 43 44 44 45 47 47 47 48 48 48 48 48 49 49 50
28 28 28 29 30 31 32 33 34 34 35 35 34 35 36 37 38 39 39 41 42 42 43 44 45 45 47 47 47 46 46 46 47 48 49 50 50 51
28 30 30 30 31 31 32 33 34 34 35 35 36 37 38 39 40 41 41 42 43 43 44 44 45 45 45 45 45 45 46 47 48 49 49 50 50 50
30 31 31 31 32 32 33 33 34 35 36 37 39 40 40 40 41 41 42 42 43 44 44 44 44 43 43 44 45 45 46 47 48 49 50 50 50 51
31 30 31 31 31 32 33 34 36 37 38 39 40 40 40 41 41 42 42 43 44 44 44 44 43 43 44 45 46 46 46 47 48 48 50 50 50 50
31 32 32 33 33 34 35 36 37 38 39 39 40 40 40 40 41 41 42 42 43 43 44 44 45 46 46 46 46 47 47 47 47 48 48 48 47 47
32 33 34 35 36 36 37 37 38 38 39 39 39 40 40 41 41 42 42 43 43 43 44 44 44 45 45 45 45 46 47 46 46 46 46 46 46 46
33 34 35 36 37 38 39 39 39 39 39 40 40 41 41 42 43 43 43 44 44 44 43 43 43 44 44 45 46 46 46 45 45 45 45 45 45 44
33 35 36 37 38 38 39 39 39 39 39 41 41 42 43 43 43 43 43 42 42 42 43 43 44 44 44 44 44 44 44 43 43 44 44 44 43 41
35 35 36 38 39 39 39 39 39 40 40 41 42 42 42 42 42 42 42 42 43 43 43 43 43 43 42 42 42 42 42 42 42 42 42 42 40 39